Regional Weather Roundup
Issued by NWS

Home | Current Version | Previous Version | Graphics & Text | Print | Product List | Glossary On
Versions: 1 2 3 4 5 6 7 8 9 10 11 12 13 14 15 16 17 18 19 20 21 22 23 24 25 26 27 28 29 30 31 32 33 34 35 36 37 38 39 40 41 42 43 44 45 46 47 48 49 50
000
ASUS43 KLOT 051012
RWRIL

ILLINOIS REGIONAL WEATHER ROUNDUP
NATIONAL WEATHER SERVICE CHICAGO/ROMEOVILLE IL
500 AM CDT WED AUG 05 2015

NOTE: "FAIR" INDICATES FEW OR NO CLOUDS BELOW 12,000 FEET WITH NO
SIGNIFICANT WEATHER AND/OR OBSTRUCTIONS TO VISIBILITY.

* THESE STATIONS ARE NOT UNDER NWS QUALITY CONTROL. THEY ALSO MAY NOT
  REPORT WEATHER SUCH AS PRECIPITATION OR FOG.

ILZ001-002-007-009-015-016-024-051100-
NORTHWEST ILLINOIS

CITY           SKY/WX    TMP DP  RH WIND       PRES   REMARKS
MOLINE         CLEAR     62  59  90 E5        30.01F
STERLING*      CLEAR     57  55  94 CALM      30.01S
SAVANNA*       CLEAR     57  55  94 N3        30.04S
$$

ILZ003-004-008-010-011-017-018-051100-
NORTH CENTRAL ILLINOIS

CITY           SKY/WX    TMP DP  RH WIND       PRES   REMARKS
ROCKFORD       PTCLDY    58  54  86 CALM      30.06S
FREEPORT*      PTCLDY    52  51  97 CALM      30.07S
ROCHELLE*      PTCLDY    54  52  94 CALM      30.05F
DE KALB*       PTCLDY    59  55  89 CALM      30.06S
PERU*          CLEAR     60  57  89 CALM      30.05R
$$

ILZ005-006-012>014-019>023-051100-
NORTHEAST ILLINOIS

CITY           SKY/WX    TMP DP  RH WIND       PRES   REMARKS
CHICAGO-OHARE  PTCLDY    62  58  86 W3        30.04R
CHICAGO-MIDWAY PTCLDY    68  59  73 CALM      30.04R
AURORA         PTCLDY    55  52  89 CALM      30.05S
LANSING*       PTCLDY    57  56  95 CALM      30.05R
JOLIET*        CLEAR     57  56  96 CALM      30.04S
WAUKEGAN       CLEAR     59  57  93 W3        30.03S
DUPAGE AIRPORT CLEAR     59  55  87 CALM      30.04S
KANKAKEE*      CLEAR     60  58  96 CALM      30.05S
WHEELING       CLEAR     62  57  83 CALM      30.06R
MORRIS*        CLEAR     59  56  89 CALM      30.04R
ROMEOVILLE*    CLEAR     58  57  96 CALM      30.04S
NORTHERLY ISL    N/A     69  58  67 SW2         N/A
$$

LMZ740>746-051100-
SOUTHERN LAKE MICHIGAN

STATION/POSITION SKY/WX   TEMP    WIND        PRES    VSBY  WAVE
                          AIR SEA DIR/SP/G                  HT/PER
                          (F)     (DEG/KT/KT) (MB)    (MI)  (FT/S)
HARRISON CRIB              71     200/  8/ 10   N/A
BURNHAM HARBOR             69     260/  5       N/A
CALUMET HARBOR             67     250/  2/  3   N/A
BURNS HARBOR               65     180/  5/  6 1017.3S
MICHIGAN CITY              65     140/  5/  6   N/A
MICHIGAN CITY 6N           70 73  220/  4/  4   N/A           1
ST. JOSEPH                 71 74  250/  6/  8   N/A           0
$$

ILZ025>027-034>036-040-047-049-050-058-095>099-051100-
WEST-CENTRAL ILLINOIS

CITY           SKY/WX    TMP DP  RH WIND       PRES   REMARKS
QUINCY         PTCLDY    67  63  87 E5        30.00S
GALESBURG*     PTCLDY    62  61  96 CALM      30.03S
MACOMB*        CLEAR     61  61  99 NE5       30.03F
JACKSONVILLE*  CLEAR     66  63  90 E5        30.00F
PITTSFIELD*    PTCLDY    68  64  87 CALM      30.01F
$$

ILZ028>032-037-038-041>044-048-051>054-059>061-051100-
CENTRAL ILLINOIS

CITY           SKY/WX    TMP DP  RH WIND       PRES   REMARKS
PONTIAC        CLEAR     60  59  99 CALM      30.04F
BLOOMINGTON    CLEAR     64  61  90 SE5       30.05F
DECATUR        CLEAR     64  61  90 E5        30.03F
PEORIA         CLEAR     67  62  84 NE3       30.03F
LACON*         CLEAR     63  60  93 SE5       30.02F
LINCOLN*       CLEAR     64  62  92 CALM      30.03S
SPRINGFIELD    CLEAR     66  62  87 NE7       30.01F
TAYLORVILLE    CLEAR     64  63  94 E5        30.01F
$$

ILZ033-039-045-046-055>057-062-063-051100-
EAST-CENTRAL ILLINOIS

CITY           SKY/WX    TMP DP  RH WIND       PRES   REMARKS
CHAMPAIGN      CLEAR     61  59  93 E3        30.05S
DANVILLE*      CLEAR     58  58  98 CALM      30.02S
RANTOUL*       CLEAR     64  61  91 CALM      30.05S
MATTOON        CLEAR     63  60  90 CALM      30.02F
PARIS*         CLEAR     59  59  99 CALM      30.05S
$$

ILZ079-100>102-051100-
SOUTHWEST ILLINOIS

CITY           SKY/WX    TMP DP  RH WIND       PRES   REMARKS
ALTON          MOCLDY    69  66  90 E6        30.00S
BELLEVILLE     PTCLDY    72  72 100 E5        29.98S
CAHOKIA*       PTCLDY    74  69  85 E5        29.98S
SPARTA*        CLOUDY    70  68  95 NE7       29.99S
$$

ILZ064>066-069>071-074>076-080>082-084>086-088>090-092>094-051100-
SOUTH-CENTRAL ILLINOIS

CITY           SKY/WX    TMP DP  RH WIND       PRES   REMARKS
CARBONDALE     PTCLDY    71  69  93 NE6       29.98R
CAIRO*         MOCLDY    73  73  98 CALM      29.97R
EFFINGHAM*     PTCLDY    66  63  88 CALM      30.05R
MARION         PTCLDY    72  70  94 N6        29.99R
MT. VERNON     CLOUDY    70  64  83 NE5       30.01S
CENTRALIA*     PTCLDY    71  66  84 E8        30.00F
SALEM*         RAIN      72  69  90 NE6       30.01F
METROPOLIS*    PTCLDY    73  73 100 CALM      29.98S
$$

ILZ067-068-072-073-078-083-087-091-051100-
SOUTHEAST ILLINOIS

CITY           SKY/WX    TMP DP  RH WIND       PRES   REMARKS
LAWRENCEVILLE  PTCLDY    67  65  93 CALM      30.03S
FLORA*         TSTM      70  68  94 NE5       30.05R
FAIRFIELD*     CLOUDY    70  68  95 N7        30.01S
HARRISBURG*    PTCLDY    70  70 100 NE5       30.00R
ROBINSON*      FOG       64  63  97 CALM      30.04R VSB 1/2
CARMI*         TSTM      69  65  86 SW9       30.00S
$$

ABBREVIATIONS USED IN REMARKS
   TC - TEMPERATURE IN CELSIUS
  WCI - WIND CHILL INDEX
   HX - HEAT INDEX
  VSB - VISIBILITY
$$




USA.gov is the U.S. government's official web portal to all federal, state and local government web resources and services.